Torna al catalogo

STARLINK-5282

AttivoComunicazioniVLEO
NORAD 54169·PAYLOAD·🇺🇸 United States

Lanciato Oct 28, 2022 da Vandenberg Space Force Base

Loading…

Prossimi Passaggi (prossime 24 ore)

TLE

AggiornatoSource: CelesTrak SupGP

Epoca: Sep 14, 2026, 22:16 UTC

1 54169C 22141N   26257.92826389  .00006854  00000+0  20249-3 0  2573
2 54169  53.1569 220.0368 0001307  97.5494 304.9533 15.34387759    16

Traccia STARLINK-5282 in tempo reale con AllMySat

Download on the App Store